TimeEST,TemperatureF,Dew PointF,Humidity,Sea Level PressureIn,VisibilityMPH,Wind Direction,Wind SpeedMPH,Gust SpeedMPH,PrecipitationIn,Events,Conditions,WindDirDegrees,DateUTC
12:15 AM,35.6,32.0,87,30.20,10.0,Calm,Calm,-,N/A,,Clear,0,2013-03-04 05:15:00
12:35 AM,35.6,32.0,87,30.19,10.0,Calm,Calm,-,N/A,,Clear,0,2013-03-04 05:35:00
12:55 AM,33.8,32.0,93,30.19,10.0,Calm,Calm,-,N/A,,Clear,0,2013-03-04 05:55:00
1:15 AM,33.8,32.0,93,30.19,10.0,Calm,Calm,-,N/A,,Clear,0,2013-03-04 06:15:00
1:35 AM,35.6,32.0,87,30.18,10.0,Calm,Calm,-,N/A,,Mostly Cloudy,0,2013-03-04 06:35:00
1:55 AM,35.6,32.0,87,30.18,10.0,Calm,Calm,-,N/A,,Mostly Cloudy,0,2013-03-04 06:55:00
2:15 AM,37.4,32.0,81,30.18,10.0,Calm,Calm,-,N/A,,Overcast,0,2013-03-04 07:15:00
2:35 AM,35.6,32.0,87,30.18,10.0,Calm,Calm,-,N/A,,Mostly Cloudy,0,2013-03-04 07:35:00
2:55 AM,33.8,32.0,93,30.17,10.0,Calm,Calm,-,N/A,,Partly Cloudy,0,2013-03-04 07:55:00
3:15 AM,35.6,32.0,87,30.17,10.0,Calm,Calm,-,N/A,,Clear,0,2013-03-04 08:15:00
3:35 AM,33.8,32.0,93,30.17,10.0,Calm,Calm,-,N/A,,Clear,0,2013-03-04 08:35:00
3:55 AM,33.8,32.0,93,30.17,10.0,Calm,Calm,-,N/A,,Clear,0,2013-03-04 08:55:00
4:15 AM,35.6,32.0,87,30.17,10.0,NNW,4.6,-,N/A,,Clear,340,2013-03-04 09:15:00
4:35 AM,39.2,30.2,70,30.17,10.0,North,4.6,-,N/A,,Clear,350,2013-03-04 09:35:00
4:55 AM,37.4,32.0,81,30.18,10.0,NNW,3.5,-,N/A,,Clear,340,2013-03-04 09:55:00
5:15 AM,37.4,32.0,81,30.18,10.0,NNW,3.5,-,N/A,,Clear,340,2013-03-04 10:15:00
5:35 AM,37.4,32.0,81,30.19,10.0,NNW,3.5,-,N/A,,Clear,340,2013-03-04 10:35:00
5:55 AM,35.6,30.2,81,30.19,10.0,Calm,Calm,-,N/A,,Clear,0,2013-03-04 10:55:00
6:15 AM,33.8,30.2,87,30.20,10.0,Calm,Calm,-,N/A,,Clear,0,2013-03-04 11:15:00
6:35 AM,32.0,30.2,93,30.21,10.0,Calm,Calm,-,N/A,,Clear,0,2013-03-04 11:35:00
6:55 AM,32.0,30.2,93,30.23,9.0,Calm,Calm,-,N/A,,Clear,0,2013-03-04 11:55:00
7:15 AM,32.0,32.0,100,30.23,9.0,Calm,Calm,-,N/A,,Clear,0,2013-03-04 12:15:00
7:35 AM,37.4,32.0,81,30.22,8.0,North,3.5,-,N/A,,Clear,350,2013-03-04 12:35:00
7:55 AM,42.8,30.2,61,30.24,10.0,North,3.5,-,N/A,,Clear,10,2013-03-04 12:55:00
8:15 AM,44.6,24.8,46,30.25,10.0,North,6.9,-,N/A,,Clear,360,2013-03-04 13:15:00
8:35 AM,44.6,23.0,43,30.26,10.0,North,10.4,-,N/A,,Clear,350,2013-03-04 13:35:00
8:55 AM,46.4,23.0,40,30.27,10.0,North,9.2,-,N/A,,Clear,350,2013-03-04 13:55:00
9:15 AM,46.4,21.2,37,30.26,10.0,North,10.4,-,N/A,,Clear,10,2013-03-04 14:15:00
9:35 AM,48.2,21.2,34,30.26,10.0,NNW,10.4,-,N/A,,Clear,330,2013-03-04 14:35:00
9:55 AM,48.2,21.2,34,30.25,10.0,North,9.2,-,N/A,,Clear,360,2013-03-04 14:55:00
10:15 AM,50.0,21.2,32,30.25,10.0,North,11.5,16.1,N/A,,Clear,360,2013-03-04 15:15:00
10:35 AM,51.8,23.0,33,30.25,8.0,North,6.9,-,N/A,,Clear,350,2013-03-04 15:35:00
10:55 AM,51.8,23.0,33,30.24,5.0,NNE,9.2,-,N/A,,Haze,30,2013-03-04 15:55:00
11:15 AM,53.6,23.0,30,30.24,8.0,North,4.6,-,N/A,,Clear,10,2013-03-04 16:15:00
11:35 AM,53.6,23.0,30,30.24,10.0,Calm,Calm,-,N/A,,Clear,0,2013-03-04 16:35:00
11:55 AM,55.4,23.0,29,30.23,9.0,North,3.5,-,N/A,,Clear,10,2013-03-04 16:55:00
12:15 PM,55.4,23.0,29,30.22,10.0,NNE,3.5,-,N/A,,Clear,30,2013-03-04 17:15:00
12:35 PM,57.2,23.0,27,30.21,9.0,North,6.9,-,N/A,,Clear,10,2013-03-04 17:35:00
12:55 PM,59.0,23.0,25,30.20,10.0,North,4.6,-,N/A,,Clear,360,2013-03-04 17:55:00
1:15 PM,59.0,21.2,23,30.19,9.0,NNE,4.6,-,N/A,,Clear,20,2013-03-04 18:15:00
1:55 PM,60.8,23.0,23,30.17,10.0,NNW,3.5,-,N/A,,Clear,330,2013-03-04 18:55:00
2:15 PM,62.6,23.0,22,30.16,10.0,NNE,5.8,-,N/A,,Clear,30,2013-03-04 19:15:00
2:35 PM,62.6,23.0,22,30.16,9.0,East,3.5,-,N/A,,Clear,80,2013-03-04 19:35:00
2:55 PM,64.4,23.0,21,30.15,9.0,ENE,5.8,-,N/A,,Clear,70,2013-03-04 19:55:00
3:15 PM,64.4,24.8,22,30.15,9.0,NE,6.9,-,N/A,,Clear,40,2013-03-04 20:15:00
3:35 PM,64.4,24.8,22,30.15,10.0,NNE,3.5,-,N/A,,Clear,30,2013-03-04 20:35:00
3:55 PM,64.4,26.6,24,30.14,9.0,NE,5.8,-,N/A,,Clear,50,2013-03-04 20:55:00
4:15 PM,64.4,26.6,24,30.14,8.0,NE,3.5,-,N/A,,Clear,50,2013-03-04 21:15:00
4:35 PM,64.4,26.6,24,30.15,9.0,SSE,3.5,-,N/A,,Clear,160,2013-03-04 21:35:00
4:55 PM,64.4,26.6,24,30.15,9.0,South,3.5,-,N/A,,Clear,180,2013-03-04 21:55:00
5:15 PM,64.4,26.6,24,30.15,10.0,Calm,Calm,-,N/A,,Clear,0,2013-03-04 22:15:00
5:35 PM,64.4,26.6,24,30.15,9.0,Calm,Calm,-,N/A,,Clear,0,2013-03-04 22:35:00
5:55 PM,62.6,26.6,26,30.16,10.0,SE,3.5,-,N/A,,Clear,130,2013-03-04 22:55:00
6:15 PM,62.6,30.2,30,30.17,10.0,SSE,3.5,-,N/A,,Clear,150,2013-03-04 23:15:00
6:35 PM,57.2,33.8,41,30.17,10.0,Calm,Calm,-,N/A,,Clear,0,2013-03-04 23:35:00
6:55 PM,53.6,33.8,47,30.18,10.0,Calm,Calm,-,N/A,,Clear,0,2013-03-04 23:55:00
7:15 PM,51.8,35.6,54,30.18,10.0,Calm,Calm,-,N/A,,Clear,0,2013-03-05 00:15:00
7:35 PM,51.8,33.8,50,30.17,10.0,Calm,Calm,-,N/A,,Clear,0,2013-03-05 00:35:00
7:55 PM,48.2,33.8,58,30.18,10.0,East,3.5,-,N/A,,Clear,90,2013-03-05 00:55:00
8:15 PM,48.2,32.0,54,30.18,10.0,East,3.5,-,N/A,,Clear,100,2013-03-05 01:15:00
8:35 PM,46.4,33.8,62,30.18,10.0,East,3.5,-,N/A,,Clear,100,2013-03-05 01:35:00
8:55 PM,51.8,32.0,47,30.18,10.0,WNW,5.8,-,N/A,,Clear,290,2013-03-05 01:55:00
9:35 PM,53.6,32.0,44,30.19,10.0,NNW,4.6,-,N/A,,Clear,330,2013-03-05 02:35:00
9:55 PM,51.8,32.0,47,30.19,10.0,North,3.5,-,N/A,,Clear,10,2013-03-05 02:55:00
10:15 PM,46.4,32.0,57,30.20,10.0,Calm,Calm,-,N/A,,Clear,0,2013-03-05 03:15:00
10:35 PM,48.2,32.0,54,30.20,10.0,Calm,Calm,-,N/A,,Clear,0,2013-03-05 03:35:00
10:55 PM,44.6,33.8,66,30.20,10.0,Calm,Calm,-,N/A,,Clear,0,2013-03-05 03:55:00
11:15 PM,42.8,33.8,70,30.20,10.0,SE,3.5,-,N/A,,Clear,130,2013-03-05 04:15:00
11:35 PM,44.6,33.8,66,30.20,10.0,SSE,4.6,-,N/A,,Clear,150,2013-03-05 04:35:00
11:55 PM,44.6,33.8,66,30.20,10.0,SSE,5.8,-,N/A,,Clear,150,2013-03-05 04:55:00